Back to catalog

CZ-6A DEB

AlivePO
NORAD 60827·DEBRIS·🇨🇳 China

Launched Aug 6, 2024 from Taiyuan Satellite Launch Center

Loading…

Next Passes (next 24 hours)

TLE

FreshSource: Space-Track

Epoch: Sep 14, 2026, 11:36 UTC

1 60827U 24140HE  26257.48334405  .00001019  00000-0  36259-3 0  9996
2 60827  89.0706 269.8303 0036504 304.9901  54.7871 14.33327826107076

Track CZ-6A DEB in real time with AllMySat

Download on the App Store